When you browse on this site, cookies collect data to enhance your experience and personalize the content and advertising you see.
Visit our Privacy Policy to learn more. By continuing to use the site, you agree to this use of cookies and data.
  • In United Kingdom
  • List of Countries
  • For 7 days
  • Water Temperature
  • Satellite Maps
  • Weather Map
  • Weather Widgets
  • user-avatar
    Login

    Hourly Weather Gan Yavne

    Today, 19 May, Sunday

    Time Temperature Precipitation Wind Pressure Humidity
    00:00 +24°C° 0 mm 2 mps 755 mmHg 45%
    01:00 +23°C° 0 mm 2 mps 755 mmHg 47%
    02:00 +21°C° 0 mm 4 mps 755 mmHg 63%
    03:00 +21°C° 0 mm 3 mps 755 mmHg 65%
    04:00 +20°C° 0 mm 3 mps 755 mmHg 68%
    05:00 +20°C° 0 mm 3 mps 755 mmHg 70%
    06:00 +21°C° 0 mm 2 mps 755 mmHg 62%
    07:00 +23°C° 0 mm 2 mps 756 mmHg 53%
    08:00 +24°C° 0 mm 2 mps 756 mmHg 47%
    09:00 +26°C° 0 mm 2 mps 756 mmHg 43%
    10:00 +27°C° 0 mm 3 mps 756 mmHg 39%
    11:00 +28°C° 0 mm 4 mps 756 mmHg 34%
    12:00 +28°C° 0 mm 5 mps 756 mmHg 37%
    13:00 +28°C° 0 mm 5 mps 756 mmHg 39%
    14:00 +28°C° 0 mm 6 mps 756 mmHg 42%
    15:00 +27°C° 0 mm 6 mps 756 mmHg 46%
    16:00 +26°C° 0 mm 6 mps 755 mmHg 51%
    17:00 +24°C° 0 mm 6 mps 755 mmHg 56%
    18:00 +23°C° 0 mm 5 mps 756 mmHg 62%
    19:00 +23°C° 0 mm 4 mps 756 mmHg 68%
    20:00 +22°C° 0 mm 4 mps 756 mmHg 74%
    21:00 +21°C° 0 mm 3 mps 756 mmHg 75%
    22:00 +21°C° 0 mm 3 mps 757 mmHg 76%
    23:00 +21°C° 0 mm 2 mps 757 mmHg 78%

    Tomorrow, 20 May, Monday

    Time Temperature Precipitation Wind Pressure Humidity
    00:00 +21°C° 0 mm 2 mps 757 mmHg 78%
    01:00 +20°C° 0 mm 2 mps 757 mmHg 79%
    02:00 +21°C° 0 mm 1 mps 757 mmHg 79%
    03:00 +21°C° 0 mm 1 mps 757 mmHg 78%
    04:00 +21°C° 0 mm 1 mps 756 mmHg 77%
    05:00 +19°C° 0 mm 0 mps 756 mmHg 76%
    06:00 +22°C° 0 mm 1 mps 757 mmHg 70%
    07:00 +24°C° 0 mm 2 mps 757 mmHg 63%
    08:00 +25°C° 0 mm 3 mps 757 mmHg 56%
    09:00 +27°C° 0 mm 3 mps 757 mmHg 52%
    10:00 +28°C° 0 mm 4 mps 757 mmHg 48%
    11:00 +29°C° 0 mm 5 mps 758 mmHg 43%
    12:00 +30°C° 0 mm 5 mps 757 mmHg 42%
    13:00 +30°C° 0 mm 5 mps 757 mmHg 41%
    14:00 +32°C° 0 mm 6 mps 757 mmHg 40%
    15:00 +30°C° 0 mm 6 mps 757 mmHg 42%
    16:00 +29°C° 0 mm 6 mps 756 mmHg 44%
    17:00 +28°C° 0 mm 6 mps 756 mmHg 47%
    18:00 +27°C° 0 mm 5 mps 756 mmHg 51%
    19:00 +26°C° 0 mm 4 mps 756 mmHg 56%
    20:00 +25°C° 0 mm 3 mps 757 mmHg 61%
    21:00 +24°C° 0 mm 3 mps 757 mmHg 63%
    22:00 +24°C° 0 mm 3 mps 757 mmHg 65%
    23:00 +24°C° 0 mm 3 mps 757 mmHg 67%

    Day after tomorrow, 21 May, Tuesday

    Time Temperature Precipitation Wind Pressure Humidity
    00:00 +23°C° 0 mm 2 mps 757 mmHg 70%
    01:00 +23°C° 0 mm 2 mps 757 mmHg 73%
    02:00 +23°C° 0 mm 2 mps 757 mmHg 76%
    03:00 +23°C° 0 mm 1 mps 757 mmHg 71%
    04:00 +23°C° 0 mm 1 mps 757 mmHg 66%
    05:00 +23°C° 0 mm 1 mps 757 mmHg 62%
    06:00 +25°C° 0 mm 1 mps 757 mmHg 55%
    07:00 +27°C° 0 mm 1 mps 757 mmHg 49%
    08:00 +29°C° 0 mm 1 mps 757 mmHg 42%
    09:00 +31°C° 0 mm 2 mps 757 mmHg 38%
    10:00 +32°C° 0 mm 2 mps 757 mmHg 34%
    11:00 +35°C° 0 mm 2 mps 757 mmHg 30%
    12:00 +35°C° 0 mm 4 mps 757 mmHg 31%
    13:00 +35°C° 0 mm 5 mps 757 mmHg 32%
    14:00 +35°C° 0 mm 6 mps 756 mmHg 34%
    15:00 +34°C° 0 mm 6 mps 756 mmHg 35%
    16:00 +33°C° 0 mm 6 mps 756 mmHg 36%
    17:00 +32°C° 0 mm 6 mps 756 mmHg 37%
    18:00 +30°C° 0 mm 5 mps 756 mmHg 41%
    19:00 +29°C° 0 mm 4 mps 757 mmHg 44%
    20:00 +28°C° 0 mm 4 mps 757 mmHg 47%
    21:00 +28°C° 0 mm 3 mps 757 mmHg 44%
    22:00 +28°C° 0 mm 2 mps 757 mmHg 40%
    23:00 +28°C° 0 mm 2 mps 757 mmHg 36%

    22 May, Wednesday

    Time Temperature Precipitation Wind Pressure Humidity
    00:00 +27°C° 0 mm 2 mps 757 mmHg 37%
    01:00 +27°C° 0 mm 1 mps 757 mmHg 37%
    02:00 +26°C° 0 mm 1 mps 756 mmHg 37%
    03:00 +26°C° 0 mm 1 mps 756 mmHg 38%
    04:00 +26°C° 0 mm 1 mps 756 mmHg 39%
    05:00 +25°C° 0 mm 1 mps 757 mmHg 40%
    06:00 +26°C° 0 mm 0 mps 757 mmHg 35%
    07:00 +28°C° 0 mm 0 mps 757 mmHg 30%
    08:00 +31°C° 0 mm 0 mps 757 mmHg 25%
    09:00 +34°C° 0 mm 1 mps 757 mmHg 23%
    10:00 +36°C° 0 mm 2 mps 757 mmHg 21%
    11:00 +38°C° 0 mm 4 mps 757 mmHg 19%
    12:00 +39°C° 0 mm 5 mps 757 mmHg 20%
    13:00 +39°C° 0 mm 5 mps 756 mmHg 21%
    14:00 +39°C° 0 mm 6 mps 756 mmHg 22%
    15:00 +38°C° 0 mm 6 mps 756 mmHg 24%
    16:00 +36°C° 0 mm 6 mps 756 mmHg 27%
    17:00 +34°C° 0 mm 6 mps 756 mmHg 30%
    18:00 +33°C° 0 mm 5 mps 756 mmHg 32%
    19:00 +32°C° 0 mm 4 mps 757 mmHg 35%
    20:00 +30°C° 0 mm 4 mps 757 mmHg 37%
    21:00 +30°C° 0 mm 3 mps 757 mmHg 36%
    22:00 +30°C° 0 mm 3 mps 757 mmHg 35%
    23:00 +29°C° 0 mm 2 mps 757 mmHg 33%

    23 May, Thursday

    Time Temperature Precipitation Wind Pressure Humidity
    00:00 +29°C° 0 mm 2 mps 757 mmHg 31%
    01:00 +29°C° 0 mm 2 mps 756 mmHg 28%
    02:00 +29°C° 0 mm 2 mps 756 mmHg 26%
    03:00 +29°C° 0 mm 2 mps 756 mmHg 25%
    04:00 +29°C° 0 mm 2 mps 756 mmHg 25%
    05:00 +29°C° 0 mm 2 mps 756 mmHg 24%
    06:00 +31°C° 0 mm 2 mps 756 mmHg 21%
    07:00 +35°C° 0 mm 2 mps 756 mmHg 19%
    08:00 +36°C° 0 mm 1 mps 756 mmHg 16%
    09:00 +38°C° 0 mm 2 mps 756 mmHg 15%
    10:00 +39°C° 0 mm 2 mps 756 mmHg 14%
    11:00 +42°C° 0 mm 3 mps 756 mmHg 13%
    12:00 +42°C° 0 mm 4 mps 755 mmHg 13%
    13:00 +42°C° 0 mm 4 mps 755 mmHg 14%
    14:00 +42°C° 0 mm 5 mps 754 mmHg 14%
    15:00 +42°C° 0 mm 5 mps 754 mmHg 16%
    16:00 +41°C° 0 mm 6 mps 754 mmHg 18%
    17:00 +40°C° 0 mm 6 mps 754 mmHg 20%
    18:00 +39°C° 0 mm 5 mps 754 mmHg 21%
    19:00 +37°C° 0 mm 5 mps 754 mmHg 22%
    20:00 +36°C° 0 mm 4 mps 754 mmHg 23%
    21:00 +36°C° 0 mm 4 mps 754 mmHg 21%
    22:00 +36°C° 0 mm 4 mps 754 mmHg 19%
    23:00 +36°C° 0 mm 4 mps 754 mmHg 17%

    24 May, Friday

    Time Temperature Precipitation Wind Pressure Humidity
    00:00 +36°C° 0 mm 4 mps 753 mmHg 16%
    01:00 +35°C° 0 mm 4 mps 753 mmHg 15%
    02:00 +35°C° 0 mm 4 mps 752 mmHg 14%
    03:00 +35°C° 0 mm 4 mps 752 mmHg 14%
    04:00 +35°C° 0 mm 4 mps 752 mmHg 14%
    05:00 +35°C° 0 mm 5 mps 753 mmHg 14%
    06:00 +37°C° 0 mm 5 mps 753 mmHg 13%
    07:00 +40°C° 0 mm 6 mps 753 mmHg 12%
    08:00 +44°C° 0 mm 7 mps 753 mmHg 11%
    09:00 +45°C° 0 mm 7 mps 753 mmHg 10%
    10:00 +46°C° 0 mm 7 mps 753 mmHg 10%
    11:00 +47°C° 0 mm 6 mps 752 mmHg 9%
    12:00 +47°C° 0 mm 6 mps 752 mmHg 9%
    13:00 +48°C° 0 mm 5 mps 751 mmHg 9%
    14:00 +48°C° 0 mm 4 mps 751 mmHg 9%
    15:00 +47°C° 0 mm 4 mps 751 mmHg 10%
    16:00 +44°C° 0 mm 4 mps 751 mmHg 12%
    17:00 +43°C° 0 mm 3 mps 751 mmHg 13%
    18:00 +42°C° 0 mm 3 mps 751 mmHg 13%
    19:00 +41°C° 0 mm 4 mps 751 mmHg 13%
    20:00 +40°C° 0 mm 4 mps 751 mmHg 14%
    21:00 +40°C° 0 mm 5 mps 751 mmHg 12%
    22:00 +40°C° 0 mm 5 mps 751 mmHg 11%
    23:00 +40°C° 0 mm 6 mps 751 mmHg 10%
    Show more